LZ0VRC-10 Weather Reports


time (UTC)temp
C
wind
direction
speed
KPH
gust
KPH
rain 1hr
cm
rain 24hr
cm
rain mn
cm
humidity
%
barometer
mb
20260507231454 15 0.0 0.0 0.00 0.00 0.00 76 1017.1
20260507231450 15 0.0 0.0 0.00 0.00 0.00 76 1017.1
20260507225949 15 0.0 0.0 0.00 0.00 0.00 76 1017.2
20260507224455 15 0.0 0.0 0.00 0.00 0.00 74 1017.2
20260507224450 15 0.0 0.0 0.00 0.00 0.00 74 1017.2
20260507222950 15 0.0 0.0 0.00 0.00 0.00 74 1017.2
20260507220454 16 0.0 0.0 0.00 0.00 0.00 69 1017.1
20260507214959 16 0.0 0.0 0.00 0.00 0.00 68 1017.0
20260507214954 16 0.0 0.0 0.00 0.00 0.00 68 1017.0
20260507213459 16 0.0 0.0 0.00 0.00 0.00 65 1016.8
20260507213454 16 0.0 0.0 0.00 0.00 0.00 65 1016.8
20260507211959 17 0.0 0.0 0.00 0.00 0.00 63 1016.6
20260507211954 17 0.0 0.0 0.00 0.00 0.00 63 1016.6
20260507210454 17 0.0 0.0 0.00 0.00 0.00 61 1016.3
20260507204954 17 0.0 0.0 0.00 0.00 0.00 63 1016.3
20260507203454 18 0.0 0.0 0.00 0.00 0.00 58 1016.2
20260507201959 18 0.0 0.0 0.00 0.00 0.00 56 1016.3
20260507201954 18 0.0 0.0 0.00 0.00 0.00 56 1016.3
20260507200459 17 0.0 0.0 0.00 0.00 0.00 61 1016.5
20260507200454 17 0.0 0.0 0.00 0.00 0.00 61 1016.5
20260507194959 18 0.0 0.0 0.00 0.00 0.00 60 1016.3
20260507194954 18 0.0 0.0 0.00 0.00 0.00 60 1016.3
20260507193459 18 0.0 0.0 0.00 0.00 0.00 59 1016.5
20260507193454 18 0.0 0.0 0.00 0.00 0.00 59 1016.5
20260507191954 18 0.0 0.0 0.00 0.00 0.00 60 1016.6
20260507190459 18 0.0 0.0 0.00 0.00 0.00 61 1016.6
20260507190454 18 0.0 0.0 0.00 0.00 0.00 61 1016.6
20260507184959 18 0.0 0.0 0.00 0.00 0.00 64 1016.5
20260507184954 18 0.0 0.0 0.00 0.00 0.00 64 1016.5
20260507183459 18 0.0 0.0 0.00 0.00 0.00 65 1016.2
20260507183454 18 0.0 0.0 0.00 0.00 0.00 65 1016.2
20260507181954 18 0.0 0.0 0.00 0.00 0.00 65 1016.0
20260507180459 18 0.0 0.0 0.00 0.00 0.00 61 1016.0
20260507180454 18 0.0 0.0 0.00 0.00 0.00 61 1016.0
20260507174954 18 0.0 0.0 0.00 0.00 0.00 61 1016.1
20260507173454 20 0.0 0.0 0.00 0.00 0.00 53 1016.1
20260507171954 20 0.0 0.0 0.00 0.00 0.00 45 1016.1
20260507170454 20 0.0 0.0 0.00 0.00 0.00 48 1016.1
20260507164954 20 0.0 0.0 0.00 0.00 0.00 51 1016.2
20260507163454 20 0.0 0.0 0.00 0.00 0.00 56 1016.2
20260507161959 20 0.0 0.0 0.00 0.00 0.00 58 1016.3
20260507161954 20 0.0 0.0 0.00 0.00 0.00 58 1016.3
20260507160454 20 0.0 0.0 0.00 0.00 0.00 59 1016.1
20260507154954 20 0.0 0.0 0.00 0.00 0.00 57 1016.1
20260507153459 21 0.0 0.0 0.00 0.00 0.00 55 1016.2
20260507153454 21 0.0 0.0 0.00 0.00 0.00 55 1016.2
20260507151954 21 0.0 0.0 0.00 0.00 0.00 56 1016.2
20260507150455 21 0.0 0.0 0.00 0.00 0.00 55 1016.1
20260507144955 22 0.0 0.0 0.00 0.00 0.00 51 1016.3
20260507143455 23 0.0 0.0 0.00 0.00 0.00 49 1016.3
20260507141955 22 0.0 0.0 0.00 0.00 0.00 50 1016.3
20260507140459 22 0.0 0.0 0.00 0.00 0.00 48 1016.4
20260507140455 22 0.0 0.0 0.00 0.00 0.00 48 1016.4
20260507134956 22 0.0 0.0 0.00 0.00 0.00 46 1016.5
20260507133455 21 0.0 0.0 0.00 0.00 0.00 48 1016.5
20260507131955 21 0.0 0.0 0.00 0.00 0.00 52 1016.6
20260507130500 22 0.0 0.0 0.00 0.00 0.00 51 1016.7
20260507130455 22 0.0 0.0 0.00 0.00 0.00 51 1016.7
20260507124955 22 0.0 0.0 0.00 0.00 0.00 47 1016.9
20260507123455 23 0.0 0.0 0.00 0.00 0.00 46 1017.0
20260507121955 23 0.0 0.0 0.00 0.00 0.00 50 1016.9
20260507120500 22 0.0 0.0 0.00 0.00 0.00 54 1016.9
20260507120455 22 0.0 0.0 0.00 0.00 0.00 54 1016.9
20260507114955 21 0.0 0.0 0.00 0.00 0.00 54 1016.9
20260507113455 21 0.0 0.0 0.00 0.00 0.00 52 1016.8
20260507111955 21 0.0 0.0 0.00 0.00 0.00 50 1016.8
20260507110455 22 0.0 0.0 0.00 0.00 0.00 47 1016.9
20260507105000 23 0.0 0.0 0.00 0.00 0.00 43 1017.0
20260507104955 23 0.0 0.0 0.00 0.00 0.00 43 1017.0
20260507103455 23 0.0 0.0 0.00 0.00 0.00 42 1017.0
20260507101955 22 0.0 0.0 0.00 0.00 0.00 43 1017.1
20260507100455 23 0.0 0.0 0.00 0.00 0.00 42 1017.1
20260507094955 23 0.0 0.0 0.00 0.00 0.00 41 1017.1
20260507093500 24 0.0 0.0 0.00 0.00 0.00 37 1017.1
20260507093455 24 0.0 0.0 0.00 0.00 0.00 37 1017.1
20260507091955 24 0.0 0.0 0.00 0.00 0.00 36 1017.1
20260507090500 23 0.0 0.0 0.00 0.00 0.00 37 1017.0
20260507090455 23 0.0 0.0 0.00 0.00 0.00 37 1017.0
20260507085000 25 0.0 0.0 0.00 0.00 0.00 33 1017.0
20260507084955 25 0.0 0.0 0.00 0.00 0.00 33 1017.0
20260507083500 26 0.0 0.0 0.00 0.00 0.00 32 1017.0
20260507083455 26 0.0 0.0 0.00 0.00 0.00 32 1017.0
20260507081955 23 0.0 0.0 0.00 0.00 0.00 36 1016.9
20260507080455 23 0.0 0.0 0.00 0.00 0.00 37 1016.8
20260507074955 26 0.0 0.0 0.00 0.00 0.00 30 1016.7
20260507073455 26 0.0 0.0 0.00 0.00 0.00 30 1016.7
20260507071955 25 0.0 0.0 0.00 0.00 0.00 32 1016.8
20260507070500 24 0.0 0.0 0.00 0.00 0.00 36 1016.8
20260507070455 24 0.0 0.0 0.00 0.00 0.00 36 1016.8
20260507065000 20 0.0 0.0 0.00 0.00 0.00 45 1016.9
20260507064955 20 0.0 0.0 0.00 0.00 0.00 45 1016.9
20260507063500 20 0.0 0.0 0.00 0.00 0.00 47 1016.9
20260507063455 20 0.0 0.0 0.00 0.00 0.00 47 1016.9
20260507061955 19 0.0 0.0 0.00 0.00 0.00 49 1016.7
20260507060455 19 0.0 0.0 0.00 0.00 0.00 49 1016.5
20260507054955 17 0.0 0.0 0.00 0.00 0.00 52 1016.4
20260507053500 19 0.0 0.0 0.00 0.00 0.00 47 1016.3
20260507053455 19 0.0 0.0 0.00 0.00 0.00 47 1016.3
20260507052000 20 0.0 0.0 0.00 0.00 0.00 44 1015.8
20260507051955 20 0.0 0.0 0.00 0.00 0.00 44 1015.8
20260507050500 19 0.0 0.0 0.00 0.00 0.00 45 1015.7
20260507050455 19 0.0 0.0 0.00 0.00 0.00 45 1015.7
20260507044955 18 0.0 0.0 0.00 0.00 0.00 46 1015.4
20260507043500 18 0.0 0.0 0.00 0.00 0.00 45 1015.4
20260507043455 18 0.0 0.0 0.00 0.00 0.00 45 1015.4
20260507042000 18 0.0 0.0 0.00 0.00 0.00 45 1015.2
20260507041955 18 0.0 0.0 0.00 0.00 0.00 45 1015.2
20260507040500 18 0.0 0.0 0.00 0.00 0.00 46 1015.2
20260507040455 18 0.0 0.0 0.00 0.00 0.00 46 1015.2
20260507035000 16 0.0 0.0 0.00 0.00 0.00 49 1015.0
20260507034955 16 0.0 0.0 0.00 0.00 0.00 49 1015.0
20260507033456 16 0.0 0.0 0.00 0.00 0.00 49 1015.0
20260507031956 18 0.0 0.0 0.00 0.00 0.00 40 1014.4
20260507030456 20 0.0 0.0 0.00 0.00 0.00 37 1014.3
20260507024956 20 0.0 0.0 0.00 0.00 0.00 35 1014.3
20260507023500 20 0.0 0.0 0.00 0.00 0.00 36 1014.2
20260507023456 20 0.0 0.0 0.00 0.00 0.00 36 1014.2
20260507021956 19 0.0 0.0 0.00 0.00 0.00 38 1014.1
20260507020456 18 0.0 0.0 0.00 0.00 0.00 40 1014.1
20260507015001 19 0.0 0.0 0.00 0.00 0.00 39 1014.1
20260507014956 19 0.0 0.0 0.00 0.00 0.00 39 1014.1
20260507013501 20 0.0 0.0 0.00 0.00 0.00 36 1014.0
20260507013456 20 0.0 0.0 0.00 0.00 0.00 36 1014.0
20260507011956 21 0.0 0.0 0.00 0.00 0.00 35 1013.9
20260507010456 20 0.0 0.0 0.00 0.00 0.00 36 1013.8
20260507005001 20 0.0 0.0 0.00 0.00 0.00 35 1013.8
20260507004956 20 0.0 0.0 0.00 0.00 0.00 35 1013.8
20260507003456 21 0.0 0.0 0.00 0.00 0.00 33 1013.7
20260507001956 21 0.0 0.0 0.00 0.00 0.00 34 1013.7
20260507000456 21 0.0 0.0 0.00 0.00 0.00 34 1013.6
20260506234956 19 0.0 0.0 0.00 0.00 0.00 39 1013.8
20260506233501 18 0.0 0.0 0.00 0.00 0.00 42 1013.8
20260506233456 18 0.0 0.0 0.00 0.00 0.00 42 1013.8
20260506231956 21 0.0 0.0 0.00 0.00 0.00 34 1013.7